Weather History for LTBA - September, 2012

Change the Weather History Date:

Thursday, September 13, 2012

  Actual Average Record
Temperature  
Mean Temperature 70 °F -  
Max Temperature 76 °F 71 °F 85 °F (2013)
Min Temperature 63 °F 58 °F 53 °F (2004)
Cooling Degree Days 4    
Growing Degree Days 20 (Base 50)    
Moisture  
Dew Point 58 °F    
Average Humidity 61    
Maximum Humidity 73    
Minimum Humidity 41    
Precipitation  
Precipitation 0.00 in - - ()
Sea Level Pressure  
Sea Level Pressure 29.83 in    
Wind  
Wind Speed 5 mph ()    
Max Wind Speed 9 mph    
Max Gust Speed -    
Visibility 6.2 miles    
Events      
Averages and records for this station are not official NWS values.
T = Trace of Precipitation, MM = Missing Value Source: Averaged Metar Reports

Daily Weather History Graph

Daily Weather History Graph

Search for Another Location

Airport or City:

Trip Planner

Search our weather history database for the weather conditions in past years. The results will help you decide how hot, cold, wet, or windy it might be!

Date:

Astronomy

Sep. 13, 2012 Rise Set
Actual Time 6:43 AM EEST 7:16 PM EEST
Civil Twilight 6:15 AM EEST 7:44 PM EEST
Nautical Twilight 5:43 AM EEST 8:17 PM EEST
Astronomical Twilight 5:09 AM EEST 8:50 PM EEST
Moon 3:41 AM EEST (9/13) 5:29 PM EEST (9/13)
Length of Visible Light 13h 28m
Length of Day
12h 33m
Waning Crescent, 9% of the Moon is Illuminated
Sep 13
Waning Crescent
Sep 16
New
Sep 22
First Quarter
Sep 30
Full
Oct 8
Last Quarter

Hourly Weather History & Observations

Time (EEST) Temp. Dew Point Humidity Pressure Visibility Wind Dir Wind Speed Gust Speed Precip Events Conditions
12:50 AM 69.8 °F 55.4 °F 60% 29.83 in - East 4.6 mph - N/A   Clear
1:20 AM 71.6 °F 55.4 °F 57% 29.83 in - East 5.8 mph - N/A   Clear
1:50 AM 68.0 °F 55.4 °F 64% 29.83 in - ENE 3.5 mph - N/A   Clear
2:20 AM 68.0 °F 55.4 °F 64% 29.83 in - NE 4.6 mph - N/A   Clear
3:00 AM 69 °F 54 °F 49% 29.83 in 6 mi NNE 3.5 mph - -  
3:50 AM 64.4 °F 55.4 °F 73% 29.83 in - NNW 4.6 mph - N/A   Clear
4:20 AM 64.4 °F 55.4 °F 73% 29.80 in - North 6.9 mph - N/A   Clear
4:50 AM 64.4 °F 55.4 °F 73% 29.80 in - North 5.8 mph - N/A   Clear
5:20 AM 64.4 °F 55.4 °F 73% 29.80 in - North 4.6 mph - N/A   Clear
5:50 AM 64.4 °F 55.4 °F 73% 29.80 in 6.2 mi North 5.8 mph - N/A   Partly Cloudy
6:20 AM 64.4 °F 55.4 °F 73% 29.80 in - North 5.8 mph - N/A   Clear
6:50 AM 64.4 °F 55.4 °F 73% 29.83 in - North 4.6 mph - N/A   Clear
7:20 AM 66.2 °F 55.4 °F 68% 29.83 in 6.2 mi South 1.2 mph - N/A   Partly Cloudy
7:50 AM 68.0 °F 55.4 °F 64% 29.83 in 6.2 mi Variable 2.3 mph - N/A   Partly Cloudy
8:20 AM 71.6 °F 57.2 °F 60% 29.83 in 6.2 mi SE 5.8 mph - N/A   Partly Cloudy
8:50 AM 71.6 °F 57.2 °F 60% 29.83 in 6.2 mi SSE 5.8 mph - N/A   Partly Cloudy
9:00 AM 72 °F 58 °F 51% 29.84 in 6 mi SSE 5.8 mph - -   Scattered Clouds
9:20 AM 73.4 °F 59.0 °F 61% 29.83 in 6.2 mi South 5.8 mph - N/A   Partly Cloudy
9:50 AM 73.4 °F 57.2 °F 57% 29.83 in 6.2 mi SSE 6.9 mph - N/A   Partly Cloudy
10:20 AM 73.4 °F 59.0 °F 61% 29.83 in 6.2 mi South 6.9 mph - N/A   Partly Cloudy
10:50 AM 73.4 °F 59.0 °F 61% 29.83 in 6.2 mi South 6.9 mph - N/A   Partly Cloudy
11:20 AM 73.4 °F 59.0 °F 61% 29.83 in 6.2 mi South 8.1 mph - N/A   Partly Cloudy
11:50 AM 73.4 °F 60.8 °F 65% 29.83 in 6.2 mi South 8.1 mph - N/A   Partly Cloudy
12:20 PM 73.4 °F 59.0 °F 61% 29.83 in 6.2 mi South 9.2 mph - N/A   Partly Cloudy
12:50 PM 73.4 °F 60.8 °F 65% 29.83 in 6.2 mi SSW 8.1 mph - N/A   Partly Cloudy
1:20 PM 75.2 °F 60.8 °F 61% 29.83 in 6.2 mi SSW 8.1 mph - N/A   Partly Cloudy
1:50 PM 75.2 °F 60.8 °F 61% 29.83 in 6.2 mi SW 8.1 mph - N/A   Partly Cloudy
2:20 PM 75.2 °F 60.8 °F 61% 29.83 in 6.2 mi SW 8.1 mph - N/A   Partly Cloudy
2:50 PM 75.2 °F 59.0 °F 57% 29.83 in 6.2 mi SW 6.9 mph - N/A   Partly Cloudy
3:00 PM 74 °F 59 °F 51% 29.83 in 6 mi SW 6.9 mph - -   Scattered Clouds
3:20 PM 75.2 °F 55.4 °F 50% 29.80 in 6.2 mi SW 6.9 mph - N/A   Partly Cloudy
3:50 PM 75.2 °F 55.4 °F 50% 29.80 in 6.2 mi Variable 4.6 mph - N/A   Partly Cloudy
4:20 PM 75.2 °F 55.4 °F 50% 29.80 in 6.2 mi SW 5.8 mph - N/A   Partly Cloudy
4:50 PM 75.2 °F 50.0 °F 41% 29.80 in 6.2 mi SW 4.6 mph - N/A   Partly Cloudy
5:20 PM 75.2 °F 55.4 °F 50% 29.80 in 6.2 mi SW 5.8 mph - N/A   Partly Cloudy
5:50 PM 75.2 °F 53.6 °F 47% 29.80 in 6.2 mi SSW 3.5 mph - N/A   Partly Cloudy
6:20 PM 75.2 °F 57.2 °F 53% 29.80 in 6.2 mi SW 4.6 mph - N/A   Partly Cloudy
6:50 PM 73.4 °F 57.2 °F 57% 29.80 in 6.2 mi SW 4.6 mph - N/A   Partly Cloudy
7:20 PM 71.6 °F 59.0 °F 64% 29.80 in - South 2.3 mph - N/A   Clear
7:50 PM 71.6 °F 60.8 °F 69% 29.83 in - South 3.5 mph - N/A   Clear
8:20 PM 75.2 °F 60.8 °F 61% 29.83 in - SE 5.8 mph - N/A   Clear
8:50 PM 73.4 °F 60.8 °F 65% 29.83 in - SE 8.1 mph - N/A   Clear
9:00 PM 74 °F 61 °F 55% 29.85 in 6 mi SE 8.1 mph - -  
9:20 PM 71.6 °F 60.8 °F 69% 29.86 in - Variable 3.5 mph - N/A   Clear
9:50 PM 71.6 °F 59.0 °F 64% 29.86 in - Variable 2.3 mph - N/A   Clear
10:20 PM 71.6 °F 59.0 °F 64% 29.86 in - East 3.5 mph - N/A   Clear
10:50 PM 71.6 °F 60.8 °F 69% 29.86 in - East 3.5 mph - N/A   Clear
11:20 PM 71.6 °F 59.0 °F 64% 29.86 in - East 3.5 mph - N/A   Clear
11:50 PM 69.8 °F 60.8 °F 73% 29.86 in - East 3.5 mph - N/A   Clear